STARLINK-33704 (63650 NORAD) Tracking and Keplerian Element Data

This shows tracking and keplerian element data for the satellite.

Feedback or suggestion? Click here.




ElementValue
Catalog63650
NameSTARLINK-33704
Epoch Orbit3767
Epoch Day352.65152513
Epoch Year2025
RAAN102.822
Inclination43.0007
Eccentricity0.0001654
Argument of Perigee272.3653
Mean Anonmoly87.7009
Mean Motion15.27605072
Decay Rate0.00025938
L11 63650U 25083S 25352.65152513 .00025938 00000+0 94805-3 0 9998
L22 63650 43.0007 102.8220 0001654 272.3653 87.7009 15.27605072 37674



Live tracking and technical data element details for STARLINK-33704 (NORAD 63650). STARLINK-33704 can be tracked NOW for your location showing map with azimuth and elevation plus other details from your city location.







IsCatalogInMostPopularTable: catalog: 63650, numindb: 2
Update: records affected: 1



GetName: 63650 STARLINK-33704

Hit Count: updated at: Mon, 09 Feb 2026 07:29:16 GMT